Weather History for Missoula, MT

Change the Weather History Date:

Tuesday, October 29, 2013

  Actual Average Record
Temperature  
Mean Temperature 32 °F 40 °F  
Max Temperature 42 °F 51 °F 67 °F (1907)
Min Temperature 21 °F 29 °F -4 °F (1917)
Degree Days  
Heating Degree Days 33 25  
Month to date heating degree days 656 566  
Since 1 July heating degree days 857 891  
Cooling Degree Days 0 0  
Month to date cooling degree days 0 0  
Year to date cooling degree days 579 332  
Moisture  
Dew Point 16 °F    
Average Humidity 56    
Maximum Humidity 74    
Minimum Humidity 37    
Precipitation  
Precipitation 0.00 in 0.03 in 0.28 in (1925)
Month to date precipitation 0.04 0.82  
Year to date precipitation 7.77 12.02  
Snow  
Snow 0.00 in - - ()
Month to date snowfall T  
Year to date snowfall 27.4  
Since 1 July snowfall T  
Snow Depth 0.00 in    
Sea Level Pressure  
Sea Level Pressure 30.08 in    
Wind  
Wind Speed 5 mph (SE)    
Max Wind Speed 22 mph    
Max Gust Speed 26 mph    
Visibility 10 miles    
Events      
T = Trace of Precipitation, MM = Missing Value Source: NWS Daily Summary

Daily Weather History Graph

Daily Weather History Graph

Search for Another Location

Airport:

Trip Planner

Search our weather history database for the weather conditions in past years. The results will help you decide how hot, cold, wet, or windy it might be!

Date:

Astronomy

Oct. 29, 2013 Rise Set
Actual Time 8:14 AM MDT 6:24 PM MDT
Civil Twilight 7:43 AM MDT 6:56 PM MDT
Nautical Twilight 7:07 AM MDT 7:31 PM MDT
Astronomical Twilight 6:32 AM MDT 8:06 PM MDT
Moon 2:50 AM MDT (10/29) 3:56 PM MDT (10/29)
Length of Visible Light 11h 12m
Length of Day
10h 09m
Waning Crescent, 24% of the Moon is Illuminated
Oct 29
Waning Crescent
Nov 3
New
Nov 9
First Quarter
Nov 17
Full
Nov 25
Last Quarter

Hourly Weather History & Observations

Time (MDT) Temp. Windchill Dew Point Humidity Pressure Visibility Wind Dir Wind Speed Gust Speed Precip Events Conditions
12:53 AM 28.0 °F 16.5 °F 12.9 °F 53% 30.13 in 10.0 mi ESE 15.0 mph - N/A   Scattered Clouds
1:53 AM 27.0 °F 13.5 °F 12.9 °F 56% 30.12 in 10.0 mi ESE 19.6 mph - N/A   Clear
2:53 AM 27.0 °F 12.8 °F 12.9 °F 56% 30.13 in 10.0 mi ESE 21.9 mph - N/A   Mostly Cloudy
3:53 AM 28.0 °F 16.5 °F 14.0 °F 56% 30.10 in 10.0 mi ESE 15.0 mph - N/A   Clear
4:53 AM 26.1 °F 15.0 °F 14.0 °F 60% 30.10 in 10.0 mi ESE 12.7 mph - N/A   Clear
5:53 AM 24.1 °F - 12.9 °F 62% 30.12 in 10.0 mi Calm Calm - N/A   Clear
6:53 AM 25.0 °F 14.2 °F 14.0 °F 63% 30.12 in 10.0 mi SE 11.5 mph - N/A   Clear
7:53 AM 25.0 °F 13.6 °F 14.0 °F 63% 30.12 in 10.0 mi ESE 12.7 mph - N/A   Clear
8:53 AM 23.0 °F 18.4 °F 14.0 °F 68% 30.14 in 10.0 mi Variable 3.5 mph - N/A   Clear
9:53 AM 27.0 °F 21.6 °F 15.1 °F 61% 30.13 in 10.0 mi South 4.6 mph - N/A   Clear
10:53 AM 30.0 °F - 15.1 °F 54% 30.13 in 10.0 mi Calm Calm - N/A   Clear
11:53 AM 33.1 °F - 15.1 °F 48% 30.11 in 10.0 mi Calm Calm - N/A   Clear
12:53 PM 36.0 °F - 15.1 °F 43% 30.10 in 10.0 mi Calm Calm - N/A   Clear
1:53 PM 37.9 °F - 16.0 °F 41% 30.06 in 10.0 mi Calm Calm - N/A   Clear
2:53 PM 39.9 °F - 16.0 °F 38% 30.03 in 10.0 mi Calm Calm - N/A   Clear
3:53 PM 41.0 °F 37.1 °F 17.1 °F 38% 30.01 in 10.0 mi West 5.8 mph - N/A   Clear
4:53 PM 41.0 °F 38.0 °F 18.0 °F 40% 30.00 in 10.0 mi WSW 4.6 mph - N/A   Clear
5:53 PM 41.0 °F - 18.0 °F 40% 30.00 in 10.0 mi Calm Calm - N/A   Clear
6:53 PM 36.0 °F 33.3 °F 18.0 °F 48% 30.02 in 10.0 mi WNW 3.5 mph - N/A   Clear
7:53 PM 33.1 °F - 18.0 °F 54% 30.04 in 10.0 mi Calm Calm - N/A   Clear
8:53 PM 34.0 °F - 19.0 °F 54% 30.05 in 10.0 mi Calm Calm - N/A   Clear
9:53 PM 28.9 °F - 17.1 °F 61% 30.06 in 10.0 mi Calm Calm - N/A   Clear
10:53 PM 28.0 °F - 17.1 °F 63% 30.07 in 10.0 mi Calm Calm - N/A   Clear
11:53 PM 24.1 °F - 17.1 °F 75% 30.08 in 10.0 mi Calm Calm - N/A   Clear